• In Deutschland
  • Länderverzeichnis
  • Für 7 Tage
  • Wassertemperatur
  • Satellitenkarten
  • Wetterkarte
  • Widgets
  • user-avatar
    Anmelden

    Stündliche Wetter Erkelenz

    Heute, 18 Oktober, Mittwoch

    Zeit Temperatur Niederschläge Wind Luftdruck Luftfeuchtigkeit
    00:00 +15°C° 0 mm 1 m/S 754 mmHg 86%
    01:00 +14°C° 0 mm 1 m/S 753 mmHg 86%
    02:00 +14°C° 0 mm 2 m/S 753 mmHg 86%
    03:00 +14°C° 0 mm 2 m/S 753 mmHg 87%
    04:00 +13°C° 0 mm 2 m/S 753 mmHg 87%
    05:00 +13°C° 0 mm 2 m/S 752 mmHg 87%
    06:00 +13°C° 0 mm 2 m/S 752 mmHg 87%
    07:00 +14°C° 0 mm 2 m/S 752 mmHg 80%
    08:00 +15°C° 0 mm 2 m/S 752 mmHg 74%
    09:00 +17°C° 0 mm 2 m/S 752 mmHg 67%
    10:00 +18°C° 0 mm 2 m/S 752 mmHg 64%
    11:00 +19°C° 0 mm 2 m/S 751 mmHg 60%
    12:00 +21°C° 0 mm 2 m/S 751 mmHg 56%
    13:00 +21°C° 0 mm 2 m/S 751 mmHg 58%
    14:00 +21°C° 0 mm 2 m/S 751 mmHg 61%
    15:00 +22°C° 0 mm 1 m/S 751 mmHg 63%
    16:00 +20°C° 0 mm 1 m/S 751 mmHg 69%
    17:00 +19°C° 0 mm 1 m/S 751 mmHg 76%
    18:00 +16°C° 0 mm 1 m/S 751 mmHg 82%
    19:00 +16°C° 0 mm 1 m/S 751 mmHg 84%
    20:00 +15°C° 0 mm 1 m/S 751 mmHg 86%
    21:00 +15°C° 0 mm 2 m/S 751 mmHg 88%
    22:00 +15°C° 0 mm 2 m/S 751 mmHg 88%
    23:00 +14°C° 0 mm 2 m/S 751 mmHg 89%

    Morgen, 19 Oktober, Donnerstag

    Zeit Temperatur Niederschläge Wind Luftdruck Luftfeuchtigkeit
    00:00 +14°C° 0 mm 2 m/S 751 mmHg 89%
    01:00 +14°C° 0 mm 2 m/S 751 mmHg 89%
    02:00 +14°C° 0 mm 2 m/S 751 mmHg 89%
    03:00 +13°C° 0 mm 2 m/S 751 mmHg 89%
    04:00 +13°C° 0 mm 2 m/S 750 mmHg 89%
    05:00 +13°C° 0 mm 2 m/S 750 mmHg 89%
    06:00 +13°C° 0 mm 2 m/S 750 mmHg 88%
    07:00 +14°C° 0 mm 2 m/S 750 mmHg 82%
    08:00 +16°C° 0 mm 3 m/S 750 mmHg 75%
    09:00 +17°C° 0 mm 3 m/S 750 mmHg 68%
    10:00 +19°C° 0 mm 3 m/S 750 mmHg 65%
    11:00 +20°C° 0 mm 4 m/S 750 mmHg 61%
    12:00 +21°C° 0 mm 4 m/S 750 mmHg 58%
    13:00 +21°C° 0 mm 4 m/S 749 mmHg 59%
    14:00 +21°C° 0 mm 3 m/S 749 mmHg 60%
    15:00 +21°C° 0 mm 3 m/S 749 mmHg 61%
    16:00 +20°C° 0 mm 3 m/S 749 mmHg 62%
    17:00 +19°C° 0 mm 3 m/S 749 mmHg 64%
    18:00 +18°C° 0 mm 4 m/S 749 mmHg 65%
    19:00 +18°C° 0 mm 4 m/S 749 mmHg 63%
    20:00 +18°C° 0 mm 4 m/S 749 mmHg 62%
    21:00 +17°C° 0 mm 4 m/S 749 mmHg 60%
    22:00 +17°C° 0 mm 4 m/S 749 mmHg 60%
    23:00 +17°C° 0 mm 3 m/S 749 mmHg 60%

    übermorgen, 20 Oktober, Freitag

    Zeit Temperatur Niederschläge Wind Luftdruck Luftfeuchtigkeit
    00:00 +17°C° 0 mm 3 m/S 749 mmHg 59%
    01:00 +17°C° 0 mm 3 m/S 749 mmHg 59%
    02:00 +17°C° 0 mm 3 m/S 749 mmHg 60%
    03:00 +17°C° 0 mm 3 m/S 749 mmHg 60%
    04:00 +16°C° 0 mm 3 m/S 749 mmHg 60%
    05:00 +16°C° 0 mm 3 m/S 749 mmHg 60%
    06:00 +16°C° 0 mm 3 m/S 749 mmHg 60%
    07:00 +15°C° 0 mm 4 m/S 750 mmHg 62%
    08:00 +17°C° 0 mm 4 m/S 750 mmHg 63%
    09:00 +17°C° 0 mm 4 m/S 750 mmHg 65%
    10:00 +17°C° 0,5 mm 4 m/S 750 mmHg 69%
    11:00 +17°C° 0,5 mm 4 m/S 750 mmHg 73%
    12:00 +17°C° 0,5 mm 4 m/S 751 mmHg 77%
    13:00 +17°C° 0,1 mm 4 m/S 751 mmHg 77%
    14:00 +17°C° 0,1 mm 4 m/S 751 mmHg 78%
    15:00 +17°C° 0,1 mm 4 m/S 750 mmHg 79%
    16:00 +15°C° 0 mm 4 m/S 751 mmHg 81%
    17:00 +14°C° 0 mm 4 m/S 751 mmHg 83%
    18:00 +13°C° 0 mm 3 m/S 752 mmHg 85%
    19:00 +13°C° 0 mm 3 m/S 752 mmHg 85%
    20:00 +13°C° 0 mm 3 m/S 752 mmHg 84%
    21:00 +12°C° 0 mm 3 m/S 752 mmHg 84%
    22:00 +12°C° 0 mm 3 m/S 752 mmHg 84%
    23:00 +11°C° 0 mm 3 m/S 752 mmHg 85%

    21 Oktober, Samstag

    Zeit Temperatur Niederschläge Wind Luftdruck Luftfeuchtigkeit
    00:00 +11°C° 0 mm 3 m/S 752 mmHg 85%
    01:00 +11°C° 0 mm 3 m/S 752 mmHg 84%
    02:00 +11°C° 0 mm 3 m/S 752 mmHg 82%
    03:00 +11°C° 0 mm 4 m/S 751 mmHg 81%
    04:00 +11°C° 0 mm 4 m/S 751 mmHg 81%
    05:00 +11°C° 0 mm 4 m/S 751 mmHg 80%
    06:00 +11°C° 0 mm 4 m/S 751 mmHg 80%
    07:00 +12°C° 0,3 mm 5 m/S 751 mmHg 81%
    08:00 +13°C° 0,3 mm 5 m/S 750 mmHg 81%
    09:00 +14°C° 0,3 mm 5 m/S 750 mmHg 82%
    10:00 +14°C° 0,9 mm 5 m/S 750 mmHg 83%
    11:00 +14°C° 0,9 mm 5 m/S 750 mmHg 83%
    12:00 +15°C° 0,9 mm 5 m/S 750 mmHg 83%
    13:00 +15°C° 0 mm 5 m/S 750 mmHg 81%
    14:00 +15°C° 0 mm 5 m/S 750 mmHg 79%
    15:00 +15°C° 0 mm 4 m/S 750 mmHg 76%
    16:00 +14°C° 0 mm 4 m/S 750 mmHg 77%
    17:00 +13°C° 0 mm 4 m/S 750 mmHg 78%
    18:00 +12°C° 0 mm 5 m/S 750 mmHg 79%
    19:00 +12°C° 0 mm 5 m/S 750 mmHg 78%
    20:00 +12°C° 0 mm 5 m/S 751 mmHg 77%
    21:00 +12°C° 0 mm 5 m/S 751 mmHg 76%
    22:00 +10°C° 0 mm 5 m/S 751 mmHg 75%
    23:00 +10°C° 0 mm 5 m/S 750 mmHg 74%

    22 Oktober, Sonntag

    Zeit Temperatur Niederschläge Wind Luftdruck Luftfeuchtigkeit
    00:00 +9°C° 0 mm 6 m/S 750 mmHg 73%
    01:00 +9°C° 0 mm 6 m/S 750 mmHg 74%
    02:00 +9°C° 0 mm 6 m/S 750 mmHg 75%
    03:00 +9°C° 0 mm 6 m/S 750 mmHg 75%
    04:00 +9°C° 0 mm 6 m/S 750 mmHg 76%
    05:00 +8°C° 0 mm 6 m/S 750 mmHg 76%
    06:00 +8°C° 0 mm 6 m/S 750 mmHg 77%
    07:00 +9°C° 0,1 mm 6 m/S 750 mmHg 76%
    08:00 +9°C° 0,1 mm 7 m/S 750 mmHg 75%
    09:00 +10°C° 0,1 mm 7 m/S 751 mmHg 74%
    10:00 +10°C° 0,1 mm 7 m/S 751 mmHg 72%
    11:00 +11°C° 0,1 mm 6 m/S 751 mmHg 70%
    12:00 +11°C° 0,1 mm 6 m/S 751 mmHg 68%
    13:00 +11°C° 0,2 mm 6 m/S 751 mmHg 69%
    14:00 +11°C° 0,2 mm 6 m/S 751 mmHg 70%
    15:00 +12°C° 0,2 mm 5 m/S 751 mmHg 72%
    16:00 +10°C° 0 mm 5 m/S 752 mmHg 74%
    17:00 +10°C° 0 mm 4 m/S 752 mmHg 76%
    18:00 +8°C° 0 mm 4 m/S 753 mmHg 78%
    19:00 +8°C° 0 mm 4 m/S 753 mmHg 78%
    20:00 +8°C° 0 mm 4 m/S 753 mmHg 79%
    21:00 +7°C° 0 mm 4 m/S 754 mmHg 80%
    22:00 +7°C° 0 mm 4 m/S 754 mmHg 80%
    23:00 +7°C° 0 mm 4 m/S 754 mmHg 81%

    23 Oktober, Montag

    Zeit Temperatur Niederschläge Wind Luftdruck Luftfeuchtigkeit
    00:00 +7°C° 0 mm 4 m/S 754 mmHg 81%
    01:00 +7°C° 0,1 mm 4 m/S 754 mmHg 82%
    02:00 +7°C° 0,1 mm 4 m/S 754 mmHg 83%
    03:00 +7°C° 0,1 mm 4 m/S 755 mmHg 83%
    04:00 +7°C° 0 mm 4 m/S 755 mmHg 84%
    05:00 +7°C° 0 mm 4 m/S 755 mmHg 84%
    06:00 +9°C° 0 mm 3 m/S 756 mmHg 84%
    07:00 +8°C° 0 mm 4 m/S 756 mmHg 82%
    08:00 +10°C° 0 mm 4 m/S 757 mmHg 80%
    09:00 +10°C° 0 mm 4 m/S 757 mmHg 78%
    10:00 +11°C° 0 mm 4 m/S 757 mmHg 74%
    11:00 +12°C° 0 mm 4 m/S 757 mmHg 69%
    12:00 +13°C° 0 mm 4 m/S 757 mmHg 65%
    13:00 +13°C° 0 mm 3 m/S 757 mmHg 66%
    14:00 +13°C° 0 mm 3 m/S 757 mmHg 67%
    15:00 +13°C° 0 mm 3 m/S 758 mmHg 68%
    16:00 +13°C° 0 mm 2 m/S 758 mmHg 73%
    17:00 +12°C° 0 mm 2 m/S 758 mmHg 78%
    18:00 +10°C° 0 mm 2 m/S 758 mmHg 83%
    19:00 +10°C° 0 mm 2 m/S 759 mmHg 84%
    20:00 +10°C° 0 mm 2 m/S 759 mmHg 86%
    21:00 +10°C° 0 mm 2 m/S 759 mmHg 88%
    22:00 +9°C° 0 mm 2 m/S 759 mmHg 88%
    23:00 +9°C° 0 mm 2 m/S 759 mmHg 89%
    Mehr zeigen